Location: Eschertshofen
(49.3064°N, 11.5756°E)
Time: 13:05:13
(UTC+00:00)

DMSP B5D2-2 - Pass Details

Date: 18 September 2020
Orbit: 790 x 805 km, 98.3° (Epoch: 22 October)

Event Time Altitude Azimuth Distance (km) Brightness Sun altitude
Rises 18:38:39 0° 18° (NNE) 3,333 7.3 -13.5°
Reaches altitude 10° 18:41:06 10° 25° (NNE) 2,398 6.5 -13.8°
Maximum altitude 18:46:11 46° 98° (E) 1,080 4.3 -14.6°
Drops below altitude 10° 18:51:14 10° 171° (S) 2,380 6.3 -15.4°
Sets 18:53:39 0° 178° (S) 3,304 7.0 -15.8°
